FW4111 Weather Reports


time (UTC)temp
F
wind
direction
speed
knots
gust
knots
rain 1hr
in
rain 24hr
in
rain mn
in
humidity
%
barometer
mb
20260506191504 61 222 16.5 21.7 0.00 0.00 0.00 97 1007.5
20260506190104 61 226 19.1 25.2 0.00 0.00 0.00 97 1007.7
20260506184542 60 226 14.8 24.3 0.00 0.00 0.00 96 1007.8
20260506183041 60 230 17.4 26.1 0.00 0.00 0.00 96 1007.9
20260506181548 60 221 13.0 21.7 0.00 0.00 0.00 96 1008.0
20260506180014 60 256 14.8 23.5 0.00 0.00 0.00 95 1008.2
20260506174510 61 205 15.6 25.2 0.00 0.00 0.00 94 1008.5
20260506173007 61 181 15.6 22.6 0.00 0.00 0.00 93 1008.6
20260506171511 61 179 13.0 23.5 0.00 0.00 0.00 95 1008.6
20260506170112 60 183 11.3 19.1 0.00 0.00 0.00 95 1008.9
20260506164547 60 228 15.6 26.1 0.00 0.00 0.00 95 1009.4
20260506163054 60 224 19.1 28.7 0.00 0.00 0.00 95 1009.8
20260506161542 60 214 16.5 26.9 0.00 0.00 0.00 95 1009.9
20260506160024 60 211 16.5 24.3 0.00 0.00 0.00 95 1010.0
20260506154531 60 229 12.2 24.3 0.00 0.00 0.00 94 1009.9
20260506153027 60 214 13.9 24.3 0.00 0.00 0.00 94 1009.9
20260506151524 60 233 14.8 24.3 0.00 0.00 0.00 94 1010.0
20260506150014 60 233 17.4 28.7 0.00 0.00 0.00 95 1010.1
20260506144504 61 222 18.2 29.5 0.00 0.00 0.00 94 1010.0
20260506143001 61 236 18.2 28.7 0.00 0.00 0.00 94 1010.2
20260506141603 60 222 16.5 28.7 0.00 0.00 0.00 94 1010.0
20260506140059 61 243 13.9 20.9 0.00 0.00 0.00 94 1010.1
20260506134539 61 245 13.0 23.5 0.00 0.00 0.00 94 1010.3
20260506133042 61 215 15.6 22.6 0.00 0.00 0.00 94 1010.5
20260506131533 61 233 13.0 24.3 0.00 0.00 0.00 95 1010.6
20260506130009 60 244 13.9 24.3 0.00 0.00 0.00 95 1010.5
20260506124509 59 248 13.9 21.7 0.00 0.00 0.00 96 1010.4
20260506123009 60 192 12.2 25.2 0.00 0.00 0.00 96 1010.3
20260506121505 59 223 14.8 23.5 0.00 0.00 0.00 97 1010.4
20260506120108 59 238 10.4 19.1 0.00 0.00 0.00 96 1010.4
20260506114550 59 167 11.3 20.9 0.00 0.00 0.00 96 1010.6
20260506113046 59 217 15.6 24.3 0.00 0.00 0.00 96 1010.7
20260506111544 59 224 13.9 23.5 0.00 0.00 0.00 97 1010.7
20260506110045 59 214 14.8 24.3 0.00 0.00 0.00 97 1010.5
20260506104546 58 236 14.8 22.6 0.00 0.00 0.00 97 1010.5
20260506103020 0 0.0 0.0 0.00 0.00 0.00 1010.5
20260506101526 0 0.0 0.0 0.00 0.00 0.00 1010.5
20260506100004 0 0.0 0.0 0.00 0.00 0.00 1010.3
20260506094508 0 230 19.1 26.9 0.00 0.00 0.00 1010.3
20260506093006 58 217 14.8 22.6 0.00 0.00 0.00 98 1010.4
20260506091505 58 238 19.1 26.9 0.00 0.00 0.00 98 1010.4
20260506090107 58 233 19.1 28.7 0.00 0.00 0.00 98 1010.5
20260506084547 58 223 20.9 27.8 0.00 0.00 0.00 98 1010.6
20260506083047 58 226 20.0 27.8 0.00 0.00 0.00 98 1010.6
20260506081542 58 226 18.2 26.1 0.00 0.00 0.00 97 1010.7
20260506073018 59 221 18.2 23.5 0.00 0.00 0.00 96 1010.9
20260506071520 59 222 17.4 22.6 0.00 0.00 0.00 96 1011.0
20260506070117 59 210 17.4 23.5 0.00 0.00 0.00 95 1010.9
20260506061552 59 236 15.6 25.2 0.00 0.00 0.00 94 1010.8
20260506050118 59 219 23.5 27.8 0.00 0.00 0.00 94 1011.4
20260506044611 59 218 20.0 29.5 0.00 0.00 0.00 94 1011.4
20260506043058 59 228 18.2 28.7 0.00 0.00 0.00 93 1011.4
20260506041600 60 214 20.9 28.7 0.00 0.00 0.00 93 1011.3
20260506040057 60 230 20.9 30.4 0.00 0.00 0.00 92 1011.3
20260506034538 60 246 21.7 30.4 0.00 0.00 0.00 92 1011.4
20260506033036 60 242 21.7 29.5 0.00 0.00 0.00 92 1011.5
20260506031534 60 246 19.1 27.8 0.00 0.00 0.00 92 1011.4
20260506030010 61 247 19.1 27.8 0.00 0.00 0.00 91 1011.5
20260506024520 61 230 22.6 29.5 0.00 0.00 0.00 91 1011.5
20260506023005 61 236 19.1 28.7 0.00 0.00 0.00 90 1011.7
20260506021503 61 240 21.7 32.2 0.00 0.00 0.00 90 1011.8
20260506020105 61 227 20.0 28.7 0.00 0.00 0.00 91 1011.7
20260506014545 61 231 20.0 29.5 0.00 0.00 0.00 90 1011.8
20260506013045 62 242 20.0 29.5 0.00 0.00 0.00 90 1011.7
20260506011545 62 213 19.1 27.8 0.00 0.00 0.00 90 1011.6
20260506010019 62 211 20.9 26.9 0.00 0.00 0.00 89 1011.4
20260506004515 62 240 20.9 31.3 0.00 0.00 0.00 89 1011.2
20260506003012 63 234 23.5 29.5 0.00 0.00 0.00 89 1011.1
20260506001513 63 244 21.7 31.3 0.00 0.00 0.00 86 1011.0
20260506000116 63 232 23.5 29.5 0.00 0.00 0.00 88 1010.6
20260505234613 63 99 19.1 27.8 0.00 0.00 0.00 88 1010.5
20260505233057 63 231 17.4 29.5 0.00 0.00 0.00 87 1010.5
20260505231554 64 241 26.1 33.0 0.00 0.00 0.00 85 1010.4
20260505230052 65 238 26.9 33.0 0.00 0.00 0.00 84 1010.4
20260505224533 65 237 24.3 31.3 0.00 0.00 0.00 84 1010.1
20260505223032 65 220 26.1 33.0 0.00 0.00 0.00 84 1010.2
20260505221527 65 225 25.2 31.3 0.00 0.00 0.00 85 1010.1
20260505220008 64 196 19.1 29.5 0.00 0.00 0.00 87 1009.9
20260505214505 64 216 20.0 31.3 0.00 0.00 0.00 86 1009.6
20260505213001 64 246 17.4 26.9 0.00 0.00 0.00 86 1009.7
20260505211635 64 230 17.4 29.5 0.00 0.00 0.00 86 1009.5
20260505210059 64 199 17.4 32.2 0.00 0.00 0.00 86 1009.5
20260505204539 65 256 20.0 31.3 0.00 0.00 0.00 84 1009.3
20260505203049 64 233 14.8 26.9 0.00 0.00 0.00 85 1009.4
20260505201530 64 210 20.0 29.5 0.00 0.00 0.00 85 1009.5
20260505200010 64 143 14.8 29.5 0.00 0.00 0.00 86 1009.6
20260505194508 63 245 15.6 27.8 0.00 0.00 0.00 86 1009.7
20260505193006 63 232 15.6 24.3 0.00 0.00 0.00 86 1009.8